Weather History for Bentonville, AR

Change the Weather History Date:

Thursday, January 24, 2013

  Actual Average Record
Temperature  
Mean Temperature 38 °F -  
Max Temperature 42 °F 48 °F 76 °F (1950)
Min Temperature 33 °F 25 °F -2 °F (1963)
Degree Days  
Heating Degree Days 28    
Moisture  
Dew Point 20 °F    
Average Humidity 48    
Maximum Humidity 81    
Minimum Humidity 38    
Precipitation  
Precipitation 0.00 in - - ()
Sea Level Pressure  
Sea Level Pressure 30.21 in    
Wind  
Wind Speed 11 mph (East)    
Max Wind Speed 16 mph    
Max Gust Speed 23 mph    
Visibility 10 miles    
Events      
Averages and records for this station are not official NWS values.
T = Trace of Precipitation, MM = Missing Value Source: NWS Daily Summary

Daily Weather History Graph

Daily Weather History Graph

Search for Another Location

Airport:

Trip Planner

Search our weather history database for the weather conditions in past years. The results will help you decide how hot, cold, wet, or windy it might be!

Date:

Astronomy

Jan. 24, 2013 Rise Set
Actual Time 7:23 AM CST 5:35 PM CST
Civil Twilight 6:55 AM CST 6:02 PM CST
Nautical Twilight 6:24 AM CST 6:33 PM CST
Astronomical Twilight 5:54 AM CST 7:04 PM CST
Moon 3:38 PM CST 5:20 AM CST
Length of Visible Light 11h 06m
Length of Day
10h 11m
Waxing Gibbous, 94% of the Moon is Illuminated
Jan 24
Waxing Gibbous
Jan 26
Full
Feb 3
Last Quarter
Feb 10
New
Feb 17
First Quarter

Hourly Weather History & Observations

Time (CST) Temp. Windchill Dew Point Humidity Pressure Visibility Wind Dir Wind Speed Gust Speed Precip Events Conditions
12:15 AM 42.8 °F 37.5 °F 30.2 °F 61% 30.23 in 10.0 mi NE 9.2 mph - N/A   Overcast
12:55 AM 42.8 °F 37.5 °F 26.6 °F 53% 30.24 in 10.0 mi NE 9.2 mph - N/A   Scattered Clouds
1:15 AM 42.8 °F 37.0 °F 26.6 °F 53% 30.24 in 10.0 mi NE 10.4 mph - N/A   Mostly Cloudy
1:35 AM 42.8 °F 37.0 °F 26.6 °F 53% 30.25 in 10.0 mi NE 10.4 mph - N/A   Overcast
1:56 AM 42.8 °F 37.0 °F 24.8 °F 49% 30.26 in 10.0 mi NE 10.4 mph - N/A   Overcast
2:15 AM 42.8 °F 36.6 °F 24.8 °F 49% 30.25 in 10.0 mi ENE 11.5 mph 16.1 mph N/A   Overcast
2:35 AM 41.0 °F 35.2 °F 24.8 °F 53% 30.25 in 10.0 mi ENE 9.2 mph - N/A   Overcast
3:35 AM 41.0 °F 34.7 °F 23.0 °F 49% 30.26 in 10.0 mi ENE 10.4 mph - N/A   Overcast
3:55 AM 39.2 °F 33.0 °F 23.0 °F 52% 30.26 in 10.0 mi ENE 9.2 mph - N/A   Overcast
4:15 AM 39.2 °F 32.0 °F 21.2 °F 49% 30.26 in 10.0 mi ENE 11.5 mph - N/A   Overcast
4:36 AM 39.2 °F 31.2 °F 21.2 °F 49% 30.25 in 10.0 mi ENE 13.8 mph - N/A   Overcast
4:55 AM 39.2 °F 32.0 °F 21.2 °F 49% 30.26 in 10.0 mi ENE 11.5 mph - N/A   Overcast
5:15 AM 39.2 °F 30.8 °F 21.2 °F 49% 30.26 in 10.0 mi ENE 15.0 mph 18.4 mph N/A   Overcast
5:55 AM 37.4 °F 28.2 °F 21.2 °F 52% 30.26 in 10.0 mi East 16.1 mph 20.7 mph N/A   Overcast
6:15 AM 37.4 °F 28.5 °F 19.4 °F 48% 30.26 in 10.0 mi East 15.0 mph 20.7 mph N/A   Overcast
6:55 AM 37.4 °F 28.5 °F 19.4 °F 48% 30.27 in 10.0 mi ENE 15.0 mph 23.0 mph N/A   Overcast
7:15 AM 37.4 °F 29.8 °F 19.4 °F 48% 30.27 in 10.0 mi East 11.5 mph - N/A   Overcast
7:35 AM 37.4 °F 29.3 °F 19.4 °F 48% 30.28 in 10.0 mi East 12.7 mph - N/A   Overcast
7:56 AM 37.4 °F 28.9 °F 17.6 °F 45% 30.27 in 10.0 mi East 13.8 mph 20.7 mph N/A   Overcast
8:15 AM 37.4 °F 28.9 °F 17.6 °F 45% 30.27 in 10.0 mi East 13.8 mph 19.6 mph N/A   Overcast
8:35 AM 35.6 °F 25.9 °F 15.8 °F 44% 30.27 in 10.0 mi East 16.1 mph - N/A   Overcast
8:55 AM 35.6 °F 26.6 °F 17.6 °F 48% 30.28 in 10.0 mi East 13.8 mph 19.6 mph N/A   Overcast
9:15 AM 37.4 °F 28.9 °F 17.6 °F 45% 30.29 in 10.0 mi East 13.8 mph 17.3 mph N/A   Overcast
9:35 AM 37.4 °F 28.2 °F 17.6 °F 45% 30.29 in 10.0 mi East 16.1 mph - N/A   Overcast
9:55 AM 35.6 °F 27.5 °F 17.6 °F 48% 30.29 in 10.0 mi East 11.5 mph 23.0 mph N/A   Overcast
10:35 AM 37.4 °F 28.5 °F 17.6 °F 45% 30.29 in 10.0 mi East 15.0 mph 20.7 mph N/A   Overcast
10:55 AM 37.4 °F 28.9 °F 17.6 °F 45% 30.28 in 10.0 mi East 13.8 mph 17.3 mph N/A   Overcast
11:15 AM 37.4 °F 29.3 °F 17.6 °F 45% 30.27 in 10.0 mi ESE 12.7 mph - N/A   Overcast
11:35 AM 37.4 °F 29.3 °F 17.6 °F 45% 30.27 in 10.0 mi East 12.7 mph 18.4 mph N/A   Overcast
11:55 AM 37.4 °F 29.3 °F 17.6 °F 45% 30.26 in 10.0 mi East 12.7 mph - N/A   Overcast
12:15 PM 37.4 °F 29.3 °F 17.6 °F 45% 30.25 in 10.0 mi East 12.7 mph - N/A   Overcast
12:55 PM 39.2 °F 31.6 °F 15.8 °F 39% 30.23 in 10.0 mi East 12.7 mph - N/A   Overcast
1:15 PM 37.4 °F 29.8 °F 15.8 °F 41% 30.23 in 10.0 mi ENE 11.5 mph - N/A   Overcast
1:35 PM 37.4 °F 28.9 °F 14.0 °F 38% 30.22 in 10.0 mi East 13.8 mph - N/A   Overcast
1:56 PM 37.4 °F 28.5 °F 15.8 °F 41% 30.20 in 10.0 mi East 15.0 mph 19.6 mph N/A   Overcast
2:15 PM 37.4 °F 28.2 °F 14.0 °F 38% 30.19 in 10.0 mi East 16.1 mph 20.7 mph N/A   Overcast
2:35 PM 37.4 °F 28.9 °F 15.8 °F 41% 30.18 in 10.0 mi East 13.8 mph - N/A   Overcast
3:15 PM 39.2 °F 31.6 °F 15.8 °F 39% 30.17 in 10.0 mi East 12.7 mph - N/A   Overcast
3:35 PM 39.2 °F 33.6 °F 17.6 °F 42% 30.17 in 10.0 mi East 8.1 mph - N/A   Overcast
3:55 PM 39.2 °F 32.5 °F 17.6 °F 42% 30.16 in 10.0 mi East 10.4 mph - N/A   Overcast
4:16 PM 39.2 °F 32.5 °F 17.6 °F 42% 30.15 in 10.0 mi East 10.4 mph - N/A   Overcast
4:35 PM 39.2 °F 33.0 °F 19.4 °F 45% 30.15 in 10.0 mi East 9.2 mph - N/A   Overcast
4:55 PM 37.4 °F 31.4 °F 19.4 °F 48% 30.14 in 10.0 mi East 8.1 mph - N/A   Overcast
5:15 PM 39.2 °F 35.0 °F 19.4 °F 45% 30.13 in 10.0 mi East 5.8 mph - N/A   Overcast
5:36 PM 39.2 °F 32.0 °F 21.2 °F 49% 30.12 in 10.0 mi SE 11.5 mph - N/A   Overcast
5:55 PM 39.2 °F 33.0 °F 21.2 °F 49% 30.13 in 10.0 mi SE 9.2 mph - N/A   Overcast
6:15 PM 39.2 °F 32.5 °F 21.2 °F 49% 30.11 in 10.0 mi ESE 10.4 mph - N/A   Overcast
6:55 PM 39.2 °F 32.5 °F 21.2 °F 49% 30.11 in 10.0 mi ESE 10.4 mph - N/A   Overcast
7:35 PM 39.2 °F 33.6 °F 21.2 °F 49% 30.09 in 10.0 mi ESE 8.1 mph - N/A   Overcast
7:56 PM 39.2 °F 33.0 °F 21.2 °F 49% 30.10 in 10.0 mi ESE 9.2 mph - N/A   Overcast
8:15 PM 39.2 °F 33.6 °F 23.0 °F 52% 30.11 in 10.0 mi ESE 8.1 mph - N/A   Overcast
8:35 PM 39.2 °F 33.0 °F 24.8 °F 56% 30.11 in 10.0 mi ESE 9.2 mph - N/A   Overcast
9:15 PM 37.4 °F 32.1 °F 21.2 °F 52% 30.13 in 10.0 mi ENE 6.9 mph - N/A   Overcast
9:35 PM 35.6 °F 29.2 °F 19.4 °F 52% 30.12 in 10.0 mi East 8.1 mph - N/A   Overcast
10:15 PM 35.6 °F 29.9 °F 19.4 °F 52% 30.11 in 10.0 mi ENE 6.9 mph - N/A   Overcast
10:35 PM 35.6 °F 29.9 °F 19.4 °F 52% 30.11 in 10.0 mi East 6.9 mph - N/A   Overcast
10:55 PM 35.6 °F 30.7 °F 19.4 °F 52% 30.11 in 10.0 mi East 5.8 mph - N/A   Overcast
11:35 PM 33.8 °F 29.6 °F 24.8 °F 70% 30.13 in 10.0 mi East 4.6 mph - N/A   Overcast
11:55 PM 33.8 °F 28.6 °F 28.4 °F 81% 30.12 in 5.0 mi ESE 5.8 mph - N/A   Overcast